Regional Weather Roundup
Issued by NWS Green Bay, WI

Home | Current Version | Previous Version | Graphics & Text | Print | Product List | Glossary Off
Versions: 1 2 3 4 5 6 7 8 9 10 11 12 13 14 15 16 17 18 19 20 21 22 23 24 25 26 27 28 29 30 31 32 33 34 35 36 37 38 39 40 41 42 43 44 45 46 47 48 49 50

000
ASUS43 KGRB 210710
RWRGRB

NORTH-CENTRAL AND NORTHEAST WISCONSIN REGIONAL WEATHER ROUNDUP
NATIONAL WEATHER SERVICE GREEN BAY WI
200 AM CDT TUE OCT 21 2014

WIZ005-009-010>012-018-019-210800-
NORTH CENTRAL WISCONSIN

CITY           SKY/WX    TMP DP  RH WIND       PRES   REMARKS
IRONWOOD       CLOUDY    41  36  81 N5        30.12R
MANITOWISH WTR CLOUDY    39  37  94 NE6       30.12R
ARBOR VITAE    CLOUDY    42  37  84 NE8       30.11R
EAGLE RIVER    FLURRIES  38  37  94 N3        30.10R
LAND O LAKES   CLOUDY    39  37  95 N5        30.12R
RHINELANDER    CLOUDY    39  35  86 N3        30.11R
PHILLIPS       CLOUDY    40  37  87 NE7       30.11R
ANTIGO         CLOUDY    39  36  87 N9        30.08S
TOMAHAWK       CLOUDY    40  34  77 N3        30.11S
MERRILL        MOCLDY    40  35  83 N7        30.10S
$$

WIZ013-073-210800-
NORTHEAST WISCONSIN

CITY           SKY/WX    TMP DP  RH WIND       PRES   REMARKS
IRON MOUNTAIN  CLOUDY    41  37  86 N12       30.07R
MARINETTE      CLOUDY    45  37  76 N8        30.05R
OCONTO         CLOUDY    44  39  84 N5        30.05S
$$

WIZ017-030-035>037-045-210800-
CENTRAL WISCONSIN

CITY           SKY/WX    TMP DP  RH WIND       PRES   REMARKS
MEDFORD        CLOUDY    42  38  86 NE7       30.10R
WAUSAU         CLEAR     42  36  79 N8        30.08R
MOSINEE        PTCLDY    41  37  87 N8        30.09S
MARSHFIELD     CLOUDY    45  39  79 NE8       30.08R
WISC RAPIDS    CLOUDY    47  39  74 N7        30.10R
STEVENS POINT  PTCLDY    42  37  82 NW5       30.08S
WAUPACA        MOCLDY    45  40  82 CALM      30.07R
SHAWANO        PTCLDY    44  38  82 N5        30.08R
CLINTONVILLE   PTCLDY    43  36  75 N5        30.07R
$$

WIZ038-039-048-051-210800-
FOX VALLEY

CITY           SKY/WX    TMP DP  RH WIND       PRES   REMARKS
NWS GREEN BAY  CLOUDY    45  38  76 N9        30.06R
APPLETON       CLOUDY    43  36  75 N13       30.06R
OSHKOSH        CLOUDY    46  38  73 N10       30.05R
FOND DU LAC    CLOUDY    47  37  68 N9        30.05R
$$

WIZ022-050-052-210800-
EAST CENTRAL WISCONSIN

CITY           SKY/WX    TMP DP  RH WIND       PRES   REMARKS
STURGEON BAY   CLOUDY    45  37  76 N15       30.04R
MANITOWOC      CLOUDY    46  42  86 N10       30.04R
SHEBOYGAN      CLOUDY    45  40  82 N8        30.03S
$$

LMZ563-521-522-541>543-210800-
LAKESHORE

STATION/POSITION TIME  TEMP    WIND        PRES    VSBY  WAVE
                       AIR SEA DIR/SP/G                  HT/PER
                 (UTC) (F)     (DEG/KT/KT) (MB)    (MI)  (FT/S)
SHEBOYGAN LKSHOR 0700   47 50  320/ 10/ 11 1017.5R
KEWAUNEE LKSHORE 0700   46     340/  7/ 11 1016.1R
NORTHPORT PIER   0700   46     340/ 21/ 26 1016.9R
N MID LAKE BUOY  0700   47 51  360/ 21/ 23 1016.0R         4/ 4
CHAMBERS ISLAND  0700   45     330/ 20/ 23 1017.3S
MENOMINEE LKSHOR 0700   45     340/ 13/ 16 1018.0R
$$


USA.gov is the U.S. government's official web portal to all federal, state and local government web resources and services.